パンスターズ彗星

C/2024 C3 ( PanSTARRS )

English version
Home page
Updated on May 13, 2024

---------------------------------------------------------------------

・ プロフィール

発見日 2024年2月9日
発見光度 21.7等
発見者 Pan-STARRS 2 telescope (Haleakala)

・ 軌道要素

Epoch 2024 Mar. 31.0 TT = JDT 2460400.5
T 2023 Nov. 8.06407 TT                                  Rudenko
q   6.7126002            (2000.0)            P               Q
n   0.02481141     Peri.  159.65166     -0.93594697     -0.35213561
a  11.6421999      Node   359.70816     +0.24634154     -0.65078535
e   0.4234251      Incl.   22.46618     +0.25163291     -0.67266554
P  39.7
>From 51 observations 2023 Mar. 18-2024 Mar. 17, mean residual 0".3.

・ 光度変化

        m1 = 8.5 + 5 logΔ + 10.0 log r

---------------------------------------------------------------------

軌道要素はM.P.E.C. 2024-F34に掲載されたものです。
光度グラフはComet for Windowsで作成したものです。

---------------------------------------------------------------------

Copyright(C) Seiichi Yoshida (comet@aerith.net). All rights reserved.